| time (UTC) | temp F | wind direction | speed MPH | gust MPH | rain 1hr in | rain 24hr in | rain mn in | humidity % | barometer mb |
| 20260507192054 | 49 | 0.0 | 0.0 | 0.00 | 0.20 | 0.20 | 99 | 1014.8 | |
| 20260507191050 | 49 | 0.0 | 0.0 | 0.00 | 0.20 | 0.20 | 99 | 1014.6 | |
| 20260507190047 | 49 | 0.0 | 0.0 | 0.00 | 0.20 | 0.20 | 99 | 1014.4 | |
| 20260507185044 | 49 | 0.0 | 0.0 | 0.00 | 0.20 | 0.20 | 99 | 1014.4 | |
| 20260507184101 | 49 | 0.0 | 0.0 | 0.00 | 0.20 | 0.20 | 99 | 1014.3 | |
| 20260507183038 | 49 | 0.0 | 0.0 | 0.01 | 0.20 | 0.20 | 99 | 1014.3 | |
| 20260507182034 | 50 | 0.0 | 0.0 | 0.01 | 0.20 | 0.20 | 98 | 1014.2 | |
| 20260507181031 | 51 | 0.0 | 0.0 | 0.01 | 0.20 | 0.20 | 98 | 1014.2 | |
| 20260507180052 | 51 | 337 | 0.0 | 3.0 | 0.01 | 0.20 | 0.20 | 98 | 1014.0 |
| 20260507175045 | 51 | 270 | 0.0 | 2.0 | 0.01 | 0.20 | 0.20 | 98 | 1013.9 |
| 20260507174022 | 51 | 0.0 | 2.0 | 0.01 | 0.20 | 0.20 | 97 | 1013.9 | |
| 20260507172016 | 52 | 0.0 | 1.0 | 0.00 | 0.19 | 0.19 | 96 | 1013.7 | |
| 20260507170110 | 52 | 293 | 0.0 | 3.0 | 0.00 | 0.19 | 0.19 | 95 | 1013.5 |
| 20260507165106 | 52 | 135 | 1.0 | 4.0 | 0.00 | 0.19 | 0.19 | 95 | 1013.5 |
| 20260507164104 | 53 | 240 | 1.0 | 4.0 | 0.00 | 0.19 | 0.19 | 94 | 1013.5 |
| 20260507163100 | 53 | 247 | 1.0 | 3.0 | 0.00 | 0.19 | 0.19 | 94 | 1013.5 |
| 20260507162057 | 53 | 240 | 0.0 | 3.0 | 0.00 | 0.19 | 0.19 | 93 | 1013.5 |
| 20260507160051 | 52 | 211 | 1.0 | 5.0 | 0.00 | 0.19 | 0.19 | 95 | 1013.4 |
| 20260507155047 | 52 | 244 | 1.0 | 4.0 | 0.00 | 0.19 | 0.19 | 95 | 1013.4 |
| 20260507154044 | 51 | 0.0 | 3.0 | 0.00 | 0.19 | 0.19 | 97 | 1013.4 | |
| 20260507153041 | 52 | 276 | 1.0 | 4.0 | 0.00 | 0.19 | 0.19 | 97 | 1013.3 |
| 20260507151035 | 52 | 355 | 1.0 | 6.0 | 0.00 | 0.19 | 0.19 | 93 | 1013.3 |
| 20260507150032 | 52 | 218 | 1.0 | 6.0 | 0.00 | 0.19 | 0.19 | 94 | 1013.3 |
| 20260507145027 | 51 | 267 | 1.0 | 4.0 | 0.00 | 0.19 | 0.19 | 95 | 1013.3 |
| 20260507143021 | 51 | 199 | 1.0 | 4.0 | 0.00 | 0.19 | 0.19 | 95 | 1013.3 |
| 20260507142018 | 51 | 279 | 1.0 | 4.0 | 0.00 | 0.19 | 0.19 | 95 | 1013.3 |
| 20260507141015 | 51 | 250 | 2.0 | 6.0 | 0.00 | 0.19 | 0.19 | 95 | 1013.2 |
| 20260507140112 | 51 | 255 | 1.0 | 6.0 | 0.00 | 0.19 | 0.19 | 95 | 1013.2 |
| 20260507134105 | 51 | 315 | 1.0 | 4.0 | 0.00 | 0.19 | 0.19 | 97 | 1013.1 |
| 20260507133103 | 51 | 250 | 1.0 | 7.0 | 0.00 | 0.19 | 0.19 | 96 | 1013.1 |
| 20260507132119 | 51 | 263 | 1.0 | 4.0 | 0.00 | 0.19 | 0.19 | 97 | 1013.0 |
| 20260507131056 | 51 | 225 | 2.0 | 8.0 | 0.00 | 0.19 | 0.19 | 97 | 1013.0 |
| 20260507130053 | 51 | 228 | 1.0 | 3.0 | 0.00 | 0.19 | 0.19 | 96 | 1012.9 |
| 20260507125050 | 51 | 270 | 0.0 | 4.0 | 0.00 | 0.19 | 0.19 | 96 | 1012.9 |
| 20260507124107 | 51 | 232 | 1.0 | 4.0 | 0.00 | 0.19 | 0.19 | 96 | 1012.8 |
| 20260507123043 | 52 | 245 | 2.0 | 8.0 | 0.00 | 0.19 | 0.19 | 94 | 1012.7 |
| 20260507122040 | 51 | 226 | 3.0 | 8.0 | 0.00 | 0.19 | 0.19 | 94 | 1012.6 |
| 20260507121037 | 51 | 284 | 1.0 | 5.0 | 0.00 | 0.19 | 0.19 | 95 | 1012.6 |
| 20260507120052 | 51 | 257 | 1.0 | 4.0 | 0.00 | 0.19 | 0.19 | 96 | 1012.5 |
| 20260507114054 | 53 | 221 | 2.0 | 5.0 | 0.00 | 0.19 | 0.19 | 93 | 1012.3 |
| 20260507113049 | 53 | 191 | 1.0 | 5.0 | 0.00 | 0.19 | 0.19 | 93 | 1012.2 |
| 20260507112045 | 52 | 275 | 1.0 | 5.0 | 0.00 | 0.19 | 0.19 | 94 | 1012.2 |
| 20260507111039 | 51 | 260 | 2.0 | 5.0 | 0.00 | 0.19 | 0.19 | 95 | 1012.2 |
| 20260507110036 | 51 | 263 | 1.0 | 4.0 | 0.00 | 0.19 | 0.19 | 95 | 1012.1 |
| 20260507105114 | 51 | 201 | 1.0 | 7.0 | 0.00 | 0.19 | 0.19 | 96 | 1012.0 |
| 20260507104030 | 50 | 180 | 0.0 | 4.0 | 0.00 | 0.19 | 0.19 | 96 | 1012.1 |
| 20260507101020 | 52 | 245 | 2.0 | 4.0 | 0.00 | 0.19 | 0.19 | 95 | 1011.6 |
| 20260507100017 | 52 | 241 | 1.0 | 7.0 | 0.00 | 0.19 | 0.19 | 93 | 1011.6 |
| 20260507095114 | 51 | 203 | 0.0 | 4.0 | 0.00 | 0.19 | 0.19 | 95 | 1011.6 |
| 20260507094110 | 51 | 247 | 1.0 | 4.0 | 0.00 | 0.19 | 0.19 | 96 | 1011.4 |
| 20260507093106 | 51 | 230 | 2.0 | 7.0 | 0.00 | 0.19 | 0.19 | 96 | 1011.4 |
| 20260507091116 | 51 | 288 | 1.0 | 6.0 | 0.00 | 0.19 | 0.19 | 96 | 1011.1 |
| 20260507085048 | 51 | 236 | 1.0 | 5.0 | 0.00 | 0.19 | 0.19 | 97 | 1010.8 |
| 20260507084044 | 51 | 207 | 0.0 | 4.0 | 0.00 | 0.19 | 0.19 | 98 | 1010.7 |
| 20260507083041 | 51 | 277 | 2.0 | 10.0 | 0.00 | 0.19 | 0.19 | 98 | 1010.7 |
| 20260507075028 | 50 | 207 | 2.0 | 6.0 | 0.00 | 0.19 | 0.19 | 99 | 1010.2 |
| 20260507074024 | 50 | 256 | 2.0 | 6.0 | 0.00 | 0.19 | 0.19 | 99 | 1010.0 |
| 20260507073021 | 50 | 225 | 2.0 | 5.0 | 0.00 | 0.19 | 0.19 | 99 | 1009.8 |
| 20260507072018 | 50 | 238 | 2.0 | 5.0 | 0.00 | 0.19 | 0.19 | 99 | 1009.7 |
| 20260507071115 | 50 | 0.0 | 2.0 | 0.00 | 0.19 | 0.19 | 99 | 1009.6 | |
| 20260507065129 | 50 | 249 | 1.0 | 7.0 | 0.00 | 0.19 | 0.19 | 99 | 1009.5 |
| 20260507064105 | 50 | 283 | 1.0 | 4.0 | 0.00 | 0.19 | 0.19 | 99 | 1009.4 |
| 20260507063102 | 50 | 249 | 1.0 | 5.0 | 0.00 | 0.19 | 0.19 | 99 | 1009.4 |
| 20260507062059 | 50 | 242 | 1.0 | 3.0 | 0.00 | 0.19 | 0.19 | 99 | 1009.3 |
| 20260507061056 | 50 | 262 | 1.0 | 5.0 | 0.00 | 0.19 | 0.19 | 99 | 1009.1 |
| 20260507060052 | 50 | 253 | 1.0 | 4.0 | 0.01 | 0.19 | 0.19 | 99 | 1009.0 |
| 20260507055049 | 50 | 230 | 2.0 | 6.0 | 0.02 | 0.19 | 0.19 | 99 | 1008.8 |
| 20260507053043 | 50 | 201 | 1.0 | 6.0 | 0.06 | 0.19 | 0.19 | 99 | 1008.7 |
| 20260507052040 | 50 | 257 | 2.0 | 8.0 | 0.06 | 0.19 | 0.19 | 99 | 1008.5 |
| 20260507051036 | 50 | 206 | 1.0 | 8.0 | 0.07 | 0.19 | 0.19 | 99 | 1008.4 |
| 20260507050033 | 50 | 270 | 0.0 | 4.0 | 0.06 | 0.18 | 0.18 | 99 | 1008.4 |
| 20260507045030 | 50 | 0.0 | 0.0 | 0.05 | 0.17 | 0.17 | 99 | 1008.2 | |
| 20260507044027 | 50 | 257 | 1.0 | 4.0 | 0.02 | 0.14 | 0.14 | 99 | 1008.1 |
| 20260507043023 | 50 | 270 | 0.0 | 3.0 | 0.01 | 0.13 | 0.13 | 99 | 1008.0 |
| 20260507042020 | 50 | 0.0 | 2.0 | 0.01 | 0.13 | 0.13 | 99 | 1007.9 | |
| 20260507040114 | 50 | 0.0 | 2.0 | 0.00 | 0.12 | 0.12 | 99 | 1007.7 | |
| 20260507034107 | 50 | 0.0 | 2.0 | 0.00 | 0.13 | 0.12 | 99 | 1007.5 | |
| 20260507033124 | 50 | 0.0 | 0.0 | 0.00 | 0.13 | 0.12 | 99 | 1007.5 | |
| 20260507032101 | 50 | 180 | 0.0 | 2.0 | 0.00 | 0.13 | 0.12 | 99 | 1007.4 |
| 20260507030054 | 49 | 258 | 2.0 | 6.0 | 0.04 | 0.13 | 0.12 | 99 | 1007.2 |
| 20260507025051 | 49 | 243 | 1.0 | 6.0 | 0.04 | 0.13 | 0.12 | 99 | 1007.0 |
| 20260507024048 | 50 | 228 | 3.0 | 10.0 | 0.04 | 0.13 | 0.12 | 99 | 1007.0 |
| 20260507023045 | 50 | 134 | 1.0 | 4.0 | 0.05 | 0.13 | 0.12 | 99 | 1007.0 |
| 20260507022042 | 51 | 214 | 3.0 | 11.0 | 0.06 | 0.13 | 0.12 | 99 | 1007.0 |
| 20260507020035 | 51 | 236 | 2.0 | 6.0 | 0.04 | 0.09 | 0.08 | 99 | 1007.0 |
| 20260507015032 | 51 | 251 | 1.0 | 5.0 | 0.06 | 0.09 | 0.08 | 99 | 1007.0 |
| 20260507013046 | 51 | 248 | 3.0 | 10.0 | 0.06 | 0.08 | 0.07 | 99 | 1006.8 |
| 20260507012043 | 51 | 225 | 1.0 | 8.0 | 0.05 | 0.07 | 0.06 | 99 | 1006.8 |
| 20260507011100 | 52 | 247 | 3.0 | 6.0 | 0.05 | 0.07 | 0.06 | 99 | 1006.7 |
| 20260507010017 | 52 | 231 | 1.0 | 10.0 | 0.04 | 0.06 | 0.05 | 99 | 1006.7 |
| 20260507005114 | 52 | 223 | 3.0 | 6.0 | 0.02 | 0.04 | 0.02 | 98 | 1006.8 |
| 20260507004110 | 53 | 248 | 2.0 | 7.0 | 0.02 | 0.04 | 0.02 | 98 | 1006.8 |
| 20260507003107 | 53 | 217 | 1.0 | 7.0 | 0.01 | 0.02 | 0.01 | 98 | 1006.7 |
| 20260507002104 | 53 | 113 | 2.0 | 6.0 | 0.01 | 0.05 | 0.01 | 98 | 1006.7 |
| 20260507001100 | 53 | 90 | 1.0 | 4.0 | 0.01 | 0.05 | 0.01 | 99 | 1006.8 |
| 20260507000057 | 53 | 270 | 0.0 | 3.0 | 0.01 | 0.05 | 0.01 | 98 | 1006.7 |
| 20260506235054 | 54 | 195 | 1.0 | 7.0 | 0.00 | 0.04 | 0.00 | 98 | 1006.7 |
| 20260506234051 | 54 | 240 | 0.0 | 3.0 | 0.00 | 0.04 | 0.00 | 98 | 1006.7 |
| 20260506233108 | 54 | 216 | 2.0 | 7.0 | 0.00 | 0.04 | 0.00 | 97 | 1006.6 |
| 20260506232044 | 54 | 185 | 3.0 | 6.0 | 0.00 | 0.04 | 0.00 | 97 | 1006.6 |
| 20260506231041 | 54 | 181 | 3.0 | 8.0 | 0.00 | 0.04 | 0.00 | 97 | 1006.5 |
| 20260506230058 | 54 | 254 | 2.0 | 5.0 | 0.00 | 0.04 | 0.00 | 97 | 1006.4 |
| 20260506225055 | 54 | 200 | 1.0 | 6.0 | 0.00 | 0.04 | 0.00 | 97 | 1006.4 |
| 20260506224031 | 54 | 199 | 2.0 | 9.0 | 0.00 | 0.04 | 0.00 | 97 | 1006.3 |
| 20260506223028 | 55 | 224 | 3.0 | 8.0 | 0.00 | 0.04 | 0.00 | 97 | 1006.3 |
| 20260506221022 | 55 | 189 | 2.0 | 5.0 | 0.00 | 0.04 | 0.00 | 95 | 1006.1 |
| 20260506220019 | 56 | 225 | 0.0 | 3.0 | 0.00 | 0.04 | 0.00 | 94 | 1006.1 |
| 20260506215016 | 56 | 214 | 2.0 | 8.0 | 0.00 | 0.04 | 0.04 | 93 | 1006.0 |
| 20260506213109 | 56 | 245 | 1.0 | 4.0 | 0.00 | 0.04 | 0.04 | 92 | 1006.0 |
| 20260506212106 | 56 | 225 | 0.0 | 4.0 | 0.00 | 0.04 | 0.04 | 92 | 1005.9 |
| 20260506211102 | 56 | 212 | 1.0 | 3.0 | 0.00 | 0.04 | 0.04 | 92 | 1005.8 |
| 20260506210100 | 56 | 225 | 0.0 | 3.0 | 0.00 | 0.04 | 0.04 | 92 | 1005.7 |
| 20260506205056 | 56 | 180 | 1.0 | 3.0 | 0.00 | 0.04 | 0.04 | 92 | 1005.6 |
| 20260506203052 | 57 | 180 | 0.0 | 2.0 | 0.00 | 0.04 | 0.04 | 91 | 1005.6 |
| 20260506202047 | 57 | 180 | 0.0 | 3.0 | 0.00 | 0.04 | 0.04 | 90 | 1005.4 |
| 20260506201044 | 57 | 204 | 1.0 | 4.0 | 0.00 | 0.04 | 0.04 | 89 | 1005.4 |
| 20260506200040 | 58 | 206 | 1.0 | 4.0 | 0.00 | 0.04 | 0.04 | 88 | 1005.4 |